Location: Tel Aviv-Yafo
(32.0853°N, 34.7818°E)
Time: 14:10:56
(UTC+02:00)

Hubble Space Telescope - Visible Passes

Search period start: 08 November 2024 00:00
Search period end: 18 November 2024 00:00
Orbit: 501 x 505 km, 28.5° (Epoch: 07 November)

Date Brightness Start Highest point End Pass type
(mag) Time Alt. Az. Time Alt. Az. Time Alt. Az.
08 Nov 3.8 05:17:32 10° SSE 05:17:45 10° SSE 05:17:58 10° SSE visible
09 Nov 3.5 04:54:15 10° S 04:55:30 11° SSE 04:56:45 10° SE visible
10 Nov 3.4 04:31:31 10° S 04:33:14 12° SSE 04:34:57 10° SE visible
11 Nov 3.2 04:09:47 12° S 04:10:56 14° SSE 04:12:59 10° SE visible
12 Nov 3.3 03:49:13 15° SSE 03:49:13 15° SSE 03:50:56 10° ESE visible
12 Nov 1.9 05:24:55 10° WSW 05:28:33 37° SSE 05:32:11 10° E visible
13 Nov 3.8 03:28:31 11° ESE 03:28:31 11° ESE 03:28:48 10° ESE visible
13 Nov 1.7 05:03:08 13° SW 05:06:13 38° S 05:09:53 10° E visible
14 Nov 1.6 04:42:18 27° SW 04:43:51 40° S 04:47:33 10° E visible
15 Nov 1.4 04:21:23 42° S 04:21:28 42° S 04:25:11 10° E visible
16 Nov 2.3 04:00:23 31° SE 04:00:23 31° SE 04:02:47 10° E visible
16 Nov 1.4 05:35:27 10° W 05:39:13 46° S 05:42:59 10° ESE visible
17 Nov 3.4 03:39:18 17° ESE 03:39:18 17° ESE 03:40:22 10° E visible
17 Nov 1.4 05:13:54 16° WSW 05:16:46 45° S 05:20:31 10° ESE visible
